Check out our new BloomSky Weather System.

Active alerts


No alerts


Thunder radar  blitzortung!


Rain radar more information rain snow radar


Visit our other weather sites:

Template documentation
and downloads

And another site



Weather Underground History page Text

Daily Summary for February 8, 2017 Units:  Metric    English   Both
« Previous Day
Next Day »
Daily Weekly Monthly Yearly Custom
  High: Low: Average:
Temperature: 31.3 °C 15.8 °C 23.4 °C
Dew Point: 22.1 °C 5.7 °C 16.3 °C
Humidity: 97 % 27 % 69 %
Wind Speed: 20.9 km/h 0 km/h 6.4 km/h
Wind Gust: 30.6 km/h - -
Wind:- - WSW
Pressure: 1018.2 hPa 1006.3 hPa -
Precipitation: 0 mm    
Historical Graphs
 
 
Tabular Data for February 8, 2017
Time Temperature Dew Point Pressure Wind Wind Speed Wind Gust Humidity Rainfall Rate (Hourly)
00:02 20.1 °C 19.1 °C 1007.7 hPa South 1.6 km/h 6.4 km/h 94 % 0 mm
00:07 20.1 °C 19.1 °C 1007.7 hPa SSW 3.2 km/h 6.4 km/h 94 % 0 mm
00:12 20.1 °C 19.1 °C 1007.3 hPa South 4.8 km/h 8 km/h 94 % 0 mm
00:17 20 °C 19.2 °C 1007.3 hPa SSW 4.8 km/h 8 km/h 95 % 0 mm
00:22 19.9 °C 19.1 °C 1007.3 hPa SSW 1.6 km/h 8 km/h 95 % 0 mm
00:27 19.9 °C 19.1 °C 1007.3 hPa SW 9.7 km/h 9.7 km/h 95 % 0 mm
00:32 19.9 °C 19.1 °C 1007.3 hPa South 8 km/h 9.7 km/h 95 % 0 mm
00:37 19.8 °C 19 °C 1007 hPa SSE 1.6 km/h 9.7 km/h 95 % 0 mm
00:42 19.7 °C 18.9 °C 1007 hPa South 4.8 km/h 9.7 km/h 95 % 0 mm
00:47 19.8 °C 19.1 °C 1007 hPa SSE 4.8 km/h 8 km/h 96 % 0 mm
00:52 19.8 °C 19.1 °C 1007.3 hPa SSE 1.6 km/h 11.3 km/h 96 % 0 mm
00:57 19.7 °C 19 °C 1007.3 hPa SSW 1.6 km/h 11.3 km/h 96 % 0 mm
01:02 19.8 °C 19.1 °C 1007.3 hPa SSW 6.4 km/h 11.3 km/h 96 % 0 mm
01:07 19.8 °C 19.1 °C 1007.3 hPa SSW 4.8 km/h 8 km/h 96 % 0 mm
01:12 19.8 °C 19.1 °C 1007.3 hPa SSW 6.4 km/h 6.4 km/h 96 % 0 mm
01:17 19.8 °C 19.1 °C 1007.3 hPa SW 6.4 km/h 11.3 km/h 96 % 0 mm
01:22 19.8 °C 19.1 °C 1007.3 hPa WSW 3.2 km/h 11.3 km/h 96 % 0 mm
01:27 19.8 °C 19.1 °C 1007.3 hPa SSW 3.2 km/h 11.3 km/h 96 % 0 mm
01:32 19.8 °C 19.3 °C 1007.3 hPa SSW 4.8 km/h 11.3 km/h 97 % 0 mm
01:37 19.8 °C 19.3 °C 1007.3 hPa SW 4.8 km/h 11.3 km/h 97 % 0 mm
01:42 19.8 °C 19.3 °C 1007.7 hPa SW 6.4 km/h 11.3 km/h 97 % 0 mm
01:47 19.8 °C 19.3 °C 1007.3 hPa SSW 4.8 km/h 11.3 km/h 97 % 0 mm
01:52 19.8 °C 19.3 °C 1007.3 hPa SW 8 km/h 11.3 km/h 97 % 0 mm
01:57 19.8 °C 19.3 °C 1007.3 hPa SW 1.6 km/h 11.3 km/h 97 % 0 mm
02:02 19.8 °C 19.3 °C 1007.3 hPa SSE 3.2 km/h 11.3 km/h 97 % 0 mm
02:07 19.8 °C 19.3 °C 1007.3 hPa SSE 4.8 km/h 9.7 km/h 97 % 0 mm
02:12 19.9 °C 19.4 °C 1007.3 hPa South 3.2 km/h 9.7 km/h 97 % 0 mm
02:17 19.9 °C 19.4 °C 1007.3 hPa SW 3.2 km/h 9.7 km/h 97 % 0 mm
02:22 19.9 °C 19.4 °C 1007.3 hPa SSE 1.6 km/h 9.7 km/h 97 % 0 mm
02:27 19.9 °C 19.4 °C 1007.3 hPa South 3.2 km/h 8 km/h 97 % 0 mm
02:32 19.9 °C 19.4 °C 1007 hPa SSE 3.2 km/h 9.7 km/h 97 % 0 mm
02:37 19.9 °C 19.4 °C 1007.3 hPa SSE 1.6 km/h 9.7 km/h 97 % 0 mm
02:42 19.9 °C 19.4 °C 1007 hPa SSW 3.2 km/h 9.7 km/h 97 % 0 mm
02:47 20 °C 19.5 °C 1007 hPa SSW 9.7 km/h 11.3 km/h 97 % 0 mm
02:52 20 °C 19.5 °C 1007 hPa SW 6.4 km/h 11.3 km/h 97 % 0 mm
02:57 20 °C 19.5 °C 1007 hPa SSW 6.4 km/h 11.3 km/h 97 % 0 mm
03:02 20.1 °C 19.6 °C 1007 hPa SSW 4.8 km/h 12.9 km/h 97 % 0 mm
03:07 20 °C 19.5 °C 1007 hPa South 4.8 km/h 12.9 km/h 97 % 0 mm
03:12 20 °C 19.5 °C 1007 hPa SW 8 km/h 16.1 km/h 97 % 0 mm
03:17 20 °C 19.5 °C 1007 hPa South 8 km/h 17.7 km/h 97 % 0 mm
03:22 20 °C 19.5 °C 1007 hPa SSW 6.4 km/h 17.7 km/h 97 % 0 mm
03:27 20.1 °C 19.6 °C 1007 hPa SSE 6.4 km/h 17.7 km/h 97 % 0 mm
03:32 20.1 °C 19.6 °C 1007 hPa SSE 4.8 km/h 14.5 km/h 97 % 0 mm
03:33 20.1 °C 19.6 °C 1007 hPa SSE 3.2 km/h 14.5 km/h 97 % 0 mm
03:38 20.1 °C 19.6 °C 1007 hPa SE 3.2 km/h 14.5 km/h 97 % 0 mm
03:43 20.1 °C 19.6 °C 1006.7 hPa SSW 11.3 km/h 14.5 km/h 97 % 0 mm
03:48 20.1 °C 19.6 °C 1006.7 hPa SSE 3.2 km/h 14.5 km/h 97 % 0 mm
03:53 20.2 °C 19.7 °C 1006.7 hPa SE 4.8 km/h 14.5 km/h 97 % 0 mm
03:58 20.2 °C 19.7 °C 1006.7 hPa South 1.6 km/h 14.5 km/h 97 % 0 mm
04:03 20.2 °C 19.7 °C 1006.7 hPa SSE 3.2 km/h 12.9 km/h 97 % 0 mm
04:08 20.2 °C 19.7 °C 1006.7 hPa SSE 1.6 km/h 11.3 km/h 97 % 0 mm
04:13 20.2 °C 19.7 °C 1006.7 hPa SSW 6.4 km/h 12.9 km/h 97 % 0 mm
04:18 20.3 °C 19.8 °C 1006.3 hPa SSE 4.8 km/h 12.9 km/h 97 % 0 mm
04:23 20.3 °C 19.8 °C 1006.3 hPa SSW 9.7 km/h 12.9 km/h 97 % 0 mm
04:28 20.3 °C 19.8 °C 1006.3 hPa SSE 6.4 km/h 14.5 km/h 97 % 0 mm
04:29 20.3 °C 19.8 °C 1006.3 hPa South 6.4 km/h 14.5 km/h 97 % 0 mm
04:34 20.3 °C 19.6 °C 1006.3 hPa SSW 3.2 km/h 14.5 km/h 96 % 0 mm
04:39 20.4 °C 19.7 °C 1006.7 hPa South 6.4 km/h 16.1 km/h 96 % 0 mm
04:44 20.4 °C 19.7 °C 1006.3 hPa South 11.3 km/h 16.1 km/h 96 % 0 mm
04:49 20.5 °C 19.8 °C 1006.3 hPa SSE 4.8 km/h 17.7 km/h 96 % 0 mm
04:54 20.5 °C 19.8 °C 1006.3 hPa South 12.9 km/h 17.7 km/h 96 % 0 mm
04:59 20.5 °C 19.8 °C 1006.3 hPa South 8 km/h 17.7 km/h 96 % 0 mm
05:04 20.6 °C 19.8 °C 1006.3 hPa SSW 6.4 km/h 17.7 km/h 95 % 0 mm
05:09 20.6 °C 19.8 °C 1006.7 hPa South 9.7 km/h 17.7 km/h 95 % 0 mm
05:15 20.6 °C 19.8 °C 1006.7 hPa SSW 9.7 km/h 17.7 km/h 95 % 0 mm
05:20 20.7 °C 19.9 °C 1006.7 hPa SE 3.2 km/h 22.5 km/h 95 % 0 mm
05:25 20.7 °C 19.9 °C 1006.7 hPa SSW 8 km/h 22.5 km/h 95 % 0 mm
05:30 20.7 °C 19.9 °C 1006.7 hPa South 4.8 km/h 19.3 km/h 95 % 0 mm
05:35 20.7 °C 19.9 °C 1006.7 hPa South 9.7 km/h 12.9 km/h 95 % 0 mm
05:40 20.7 °C 19.7 °C 1007 hPa SSW 4.8 km/h 17.7 km/h 94 % 0 mm
05:45 20.8 °C 19.8 °C 1007 hPa SSE 4.8 km/h 19.3 km/h 94 % 0 mm
05:50 20.8 °C 19.8 °C 1007 hPa South 8 km/h 19.3 km/h 94 % 0 mm
05:55 20.8 °C 19.8 °C 1007 hPa SSW 11.3 km/h 19.3 km/h 94 % 0 mm
06:00 20.8 °C 19.8 °C 1007.3 hPa WSW 4.8 km/h 17.7 km/h 94 % 0 mm
06:05 20.8 °C 19.8 °C 1007.3 hPa SSW 4.8 km/h 17.7 km/h 94 % 0 mm
06:10 20.8 °C 19.8 °C 1007.3 hPa SSW 6.4 km/h 17.7 km/h 94 % 0 mm
06:15 20.8 °C 19.8 °C 1007.3 hPa SW 1.6 km/h 14.5 km/h 94 % 0 mm
06:20 20.8 °C 19.8 °C 1007.3 hPa SW 9.7 km/h 12.9 km/h 94 % 0 mm
06:25 20.7 °C 19.7 °C 1007.7 hPa SW 3.2 km/h 12.9 km/h 94 % 0 mm
06:30 20.8 °C 19.6 °C 1007.3 hPa SE 3.2 km/h 12.9 km/h 93 % 0 mm
06:35 20.8 °C 19.6 °C 1007.7 hPa South 4.8 km/h 12.9 km/h 93 % 0 mm
06:40 20.8 °C 19.6 °C 1007.7 hPa Calm   12.9 km/h 93 % 0 mm
06:45 20.7 °C 19.5 °C 1007.7 hPa SSW 4.8 km/h 9.7 km/h 93 % 0 mm
06:50 20.7 °C 19.5 °C 1008 hPa SSW 1.6 km/h 11.3 km/h 93 % 0 mm
06:55 20.7 °C 19.5 °C 1008 hPa SW 3.2 km/h 11.3 km/h 93 % 0 mm
07:01 20.7 °C 19.5 °C 1008 hPa SW 1.6 km/h 11.3 km/h 93 % 0 mm
07:06 20.7 °C 19.5 °C 1008 hPa Calm   8 km/h 93 % 0 mm
07:11 20.8 °C 19.6 °C 1008 hPa SW 1.6 km/h 8 km/h 93 % 0 mm
07:16 20.8 °C 19.6 °C 1008.4 hPa SW 1.6 km/h 8 km/h 93 % 0 mm
07:21 20.8 °C 19.6 °C 1008.4 hPa SSW 1.6 km/h 6.4 km/h 93 % 0 mm
07:26 20.8 °C 19.6 °C 1008.4 hPa SW 1.6 km/h 6.4 km/h 93 % 0 mm
07:31 20.9 °C 19.7 °C 1008.4 hPa Calm   6.4 km/h 93 % 0 mm
07:36 20.9 °C 19.7 °C 1008.4 hPa SSW 1.6 km/h 6.4 km/h 93 % 0 mm
07:41 20.9 °C 19.7 °C 1008.4 hPa SW 1.6 km/h 6.4 km/h 93 % 0 mm
07:46 21 °C 19.8 °C 1008.4 hPa SW 6.4 km/h 6.4 km/h 93 % 0 mm
07:51 21.1 °C 19.9 °C 1008.4 hPa SSW 4.8 km/h 20.9 km/h 93 % 0 mm
07:56 21.2 °C 20 °C 1008.4 hPa SW 1.6 km/h 20.9 km/h 93 % 0 mm
08:01 21.2 °C 19.8 °C 1008.4 hPa SSW 6.4 km/h 20.9 km/h 92 % 0 mm
08:06 21.3 °C 19.9 °C 1008.4 hPa SW 3.2 km/h 12.9 km/h 92 % 0 mm
08:11 21.3 °C 19.9 °C 1008.4 hPa SSW 3.2 km/h 12.9 km/h 92 % 0 mm
08:16 21.4 °C 20 °C 1008.4 hPa SW 11.3 km/h 12.9 km/h 92 % 0 mm
08:21 21.4 °C 19.9 °C 1008.7 hPa West 4.8 km/h 12.9 km/h 91 % 0 mm
08:26 21.6 °C 20.1 °C 1008.7 hPa SSW 3.2 km/h 12.9 km/h 91 % 0 mm
08:31 21.7 °C 20.2 °C 1008.7 hPa SSW 11.3 km/h 12.9 km/h 91 % 0 mm
08:36 21.7 °C 20.2 °C 1008.7 hPa SSE 6.4 km/h 16.1 km/h 91 % 0 mm
08:41 21.7 °C 20 °C 1008.7 hPa WSW 4.8 km/h 17.7 km/h 90 % 0 mm
08:46 21.7 °C 20 °C 1008.7 hPa SSW 8 km/h 17.7 km/h 90 % 0 mm
08:51 21.7 °C 20 °C 1008.7 hPa SSW 6.4 km/h 17.7 km/h 90 % 0 mm
08:56 21.8 °C 20.1 °C 1008.7 hPa SW 4.8 km/h 17.7 km/h 90 % 0 mm
09:02 21.9 °C 20.2 °C 1009 hPa West 3.2 km/h 12.9 km/h 90 % 0 mm
09:07 21.9 °C 20 °C 1009 hPa SW 4.8 km/h 12.9 km/h 89 % 0 mm
09:12 22 °C 20.3 °C 1009 hPa WSW 4.8 km/h 12.9 km/h 90 % 0 mm
09:17 22 °C 20.1 °C 1009.4 hPa WNW 6.4 km/h 16.1 km/h 89 % 0 mm
09:22 22.1 °C 20.2 °C 1009 hPa SW 9.7 km/h 16.1 km/h 89 % 0 mm
09:27 22.2 °C 20.1 °C 1009 hPa SSW 9.7 km/h 16.1 km/h 88 % 0 mm
09:32 22.3 °C 20.4 °C 1009 hPa SSW 4.8 km/h 14.5 km/h 89 % 0 mm
09:37 22.6 °C 20.5 °C 1009 hPa SW 9.7 km/h 14.5 km/h 88 % 0 mm
09:42 22.6 °C 20.5 °C 1009 hPa West 4.8 km/h 17.7 km/h 88 % 0 mm
09:47 22.7 °C 20.6 °C 1009 hPa SW 12.9 km/h 19.3 km/h 88 % 0 mm
09:52 22.9 °C 20.8 °C 1009 hPa South 4.8 km/h 19.3 km/h 88 % 0 mm
09:58 23.2 °C 20.9 °C 1009 hPa SSW 6.4 km/h 20.9 km/h 87 % 0 mm
10:02 23.3 °C 20.6 °C 1009.4 hPa SW 1.6 km/h 20.9 km/h 85 % 0 mm
10:05 23.3 °C 20.6 °C 1009 hPa SSW 1.6 km/h 20.9 km/h 85 % 0 mm
10:08 23.4 °C 20.7 °C 1009.4 hPa SSW 6.4 km/h 20.9 km/h 85 % 0 mm
10:13 23.5 °C 20.8 °C 1009.4 hPa West 3.2 km/h 17.7 km/h 85 % 0 mm
10:18 23.8 °C 21.3 °C 1009.4 hPa SW 1.6 km/h 11.3 km/h 86 % 0 mm
10:23 24.3 °C 21.2 °C 1009 hPa SSW 6.4 km/h 11.3 km/h 83 % 0 mm
10:28 24.6 °C 21.1 °C 1009.4 hPa West 4.8 km/h 19.3 km/h 81 % 0 mm
10:33 25.1 °C 21.4 °C 1009 hPa SW 4.8 km/h 19.3 km/h 80 % 0 mm
10:38 25.1 °C 21 °C 1009 hPa SSE 8 km/h 19.3 km/h 78 % 0 mm
10:43 25.2 °C 21.5 °C 1009 hPa NW 8 km/h 16.1 km/h 80 % 0 mm
10:48 25.4 °C 21.3 °C 1009 hPa SSE 1.6 km/h 16.1 km/h 78 % 0 mm
10:53 25.6 °C 21.1 °C 1009 hPa SSW 9.7 km/h 20.9 km/h 76 % 0 mm
10:58 25.8 °C 21.2 °C 1009 hPa SW 4.8 km/h 20.9 km/h 76 % 0 mm
11:03 26.1 °C 21.3 °C 1009.4 hPa SW 6.4 km/h 20.9 km/h 75 % 0 mm
11:08 26.2 °C 21.4 °C 1009.4 hPa SW 3.2 km/h 19.3 km/h 75 % 0 mm
11:13 26.3 °C 21.3 °C 1009.4 hPa SW 3.2 km/h 17.7 km/h 74 % 0 mm
11:18 26.4 °C 21.6 °C 1009 hPa West 4.8 km/h 20.9 km/h 75 % 0 mm
11:23 26.5 °C 21.5 °C 1009 hPa SSW 9.7 km/h 20.9 km/h 74 % 0 mm
11:28 26.6 °C 21.4 °C 1008.7 hPa SW 14.5 km/h 20.9 km/h 73 % 0 mm
11:33 26.4 °C 21.2 °C 1008.7 hPa SSW 14.5 km/h 20.9 km/h 73 % 0 mm
11:38 26.5 °C 21.3 °C 1008.7 hPa North 3.2 km/h 22.5 km/h 73 % 0 mm
11:43 26.8 °C 21.3 °C 1008.7 hPa WNW 9.7 km/h 22.5 km/h 72 % 0 mm
11:48 27.1 °C 21.4 °C 1008.7 hPa SW 11.3 km/h 22.5 km/h 71 % 0 mm
11:53 27.1 °C 21.4 °C 1009 hPa WSW 4.8 km/h 19.3 km/h 71 % 0 mm
11:58 27.3 °C 21.6 °C 1009 hPa SW 4.8 km/h 17.7 km/h 71 % 0 mm
12:03 27.6 °C 22.1 °C 1009 hPa SSW 4.8 km/h 17.7 km/h 72 % 0 mm
12:09 28.1 °C 22.1 °C 1008.7 hPa SW 9.7 km/h 17.7 km/h 70 % 0 mm
12:14 28.2 °C 22 °C 1008.7 hPa SW 6.4 km/h 17.7 km/h 69 % 0 mm
12:19 28.1 °C 22.1 °C 1008.7 hPa SW 9.7 km/h 17.7 km/h 70 % 0 mm
12:24 28.2 °C 22 °C 1009 hPa SSW 4.8 km/h 17.7 km/h 69 % 0 mm
12:29 28.2 °C 22 °C 1009 hPa SSW 4.8 km/h 19.3 km/h 69 % 0 mm
12:34 28.2 °C 22 °C 1009 hPa NW 3.2 km/h 19.3 km/h 69 % 0 mm
12:39 28.3 °C 21.6 °C 1009 hPa SSW 8 km/h 19.3 km/h 67 % 0 mm
12:44 28.2 °C 21.7 °C 1008.7 hPa SW 9.7 km/h 29 km/h 68 % 0 mm
12:49 28.3 °C 21.8 °C 1008.7 hPa SW 4.8 km/h 29 km/h 68 % 0 mm
12:54 28.4 °C 21.9 °C 1008.7 hPa SSW 9.7 km/h 29 km/h 68 % 0 mm
12:59 28.4 °C 21.7 °C 1008.7 hPa SSW 3.2 km/h 20.9 km/h 67 % 0 mm
13:00 28.5 °C 21.8 °C 1008.4 hPa NW 3.2 km/h 17.7 km/h 67 % 0 mm
13:05 28.8 °C 21.8 °C 1008.4 hPa SW 8 km/h 17.7 km/h 66 % 0 mm
13:10 28.9 °C 21.9 °C 1008.4 hPa WSW 6.4 km/h 17.7 km/h 66 % 0 mm
13:15 29.1 °C 22.1 °C 1008 hPa SSW 8 km/h 17.7 km/h 66 % 0 mm
13:20 29 °C 22 °C 1008 hPa South 8 km/h 20.9 km/h 66 % 0 mm
13:25 29 °C 21.8 °C 1007.7 hPa WSW 8 km/h 22.5 km/h 65 % 0 mm
13:30 29.4 °C 22.1 °C 1007.7 hPa WSW 6.4 km/h 22.5 km/h 65 % 0 mm
13:35 29.7 °C 21.9 °C 1007.7 hPa NNW 4.8 km/h 22.5 km/h 63 % 0 mm
13:36 29.7 °C 21.6 °C 1007.3 hPa SSW 8 km/h 22.5 km/h 62 % 0 mm
13:41 29.7 °C 21.1 °C 1007.3 hPa South 14.5 km/h 22.5 km/h 60 % 0 mm
13:46 29.7 °C 21.9 °C 1007.3 hPa South 9.7 km/h 25.7 km/h 63 % 0 mm
13:52 30 °C 21.9 °C 1007.3 hPa SSW 9.7 km/h 25.7 km/h 62 % 0 mm
13:57 30.1 °C 21.5 °C 1007.3 hPa SW 4.8 km/h 25.7 km/h 60 % 0 mm
14:02 29.9 °C 21.6 °C 1007.3 hPa WSW 4.8 km/h 17.7 km/h 61 % 0 mm
14:07 29.9 °C 21.6 °C 1007.3 hPa SSW 11.3 km/h 19.3 km/h 61 % 0 mm
14:12 29.8 °C 20.6 °C 1007.3 hPa SW 4.8 km/h 20.9 km/h 58 % 0 mm
14:17 29.7 °C 20 °C 1007 hPa SW 11.3 km/h 20.9 km/h 56 % 0 mm
14:22 29.8 °C 21.2 °C 1007 hPa SSW 12.9 km/h 20.9 km/h 60 % 0 mm
14:27 29.8 °C 20.9 °C 1007 hPa WSW 6.4 km/h 16.1 km/h 59 % 0 mm
14:32 30.1 °C 20.9 °C 1007 hPa SW 4.8 km/h 16.1 km/h 58 % 0 mm
14:37 30.3 °C 21.1 °C 1007 hPa SSW 4.8 km/h 16.1 km/h 58 % 0 mm
14:42 30.5 °C 21 °C 1007.3 hPa West 11.3 km/h 16.1 km/h 57 % 0 mm
14:47 30.6 °C 21.1 °C 1007.3 hPa SW 6.4 km/h 14.5 km/h 57 % 0 mm
14:52 30.7 °C 21.5 °C 1007.3 hPa NW 6.4 km/h 19.3 km/h 58 % 0 mm
14:57 30.6 °C 20.5 °C 1007.3 hPa SW 14.5 km/h 19.3 km/h 55 % 0 mm
15:02 30.4 °C 19.7 °C 1007.3 hPa SSW 3.2 km/h 19.3 km/h 53 % 0 mm
15:07 30.3 °C 19 °C 1007.3 hPa South 1.6 km/h 16.1 km/h 51 % 0 mm
15:12 30.3 °C 18.4 °C 1007.3 hPa WSW 1.6 km/h 16.1 km/h 49 % 0 mm
15:17 30.4 °C 18.8 °C 1007.3 hPa NW 3.2 km/h 16.1 km/h 50 % 0 mm
15:22 30.6 °C 18.7 °C 1007.3 hPa SW 8 km/h 12.9 km/h 49 % 0 mm
15:27 30.7 °C 17.4 °C 1007.3 hPa SW 8 km/h 12.9 km/h 45 % 0 mm
15:32 30.8 °C 17.5 °C 1007.3 hPa WNW 4.8 km/h 14.5 km/h 45 % 0 mm
15:37 30.8 °C 15.6 °C 1007.3 hPa SW 3.2 km/h 14.5 km/h 40 % 0 mm
15:42 30.9 °C 14.5 °C 1007.7 hPa NNW 4.8 km/h 14.5 km/h 37 % 0 mm
15:47 31.1 °C 14.3 °C 1007.7 hPa SSW 3.2 km/h 12.9 km/h 36 % 0 mm
15:52 31.1 °C 12.9 °C 1007.3 hPa WNW 1.6 km/h 12.9 km/h 33 % 0 mm
15:57 31.2 °C 12.1 °C 1007.7 hPa North 12.9 km/h 12.9 km/h 31 % 0 mm
16:02 31.2 °C 12.1 °C 1007.7 hPa WNW 9.7 km/h 14.5 km/h 31 % 0 mm
16:07 31.3 °C 12.6 °C 1008 hPa SSW 3.2 km/h 17.7 km/h 32 % 0 mm
16:12 31.2 °C 11.1 °C 1008 hPa West 6.4 km/h 17.7 km/h 29 % 0 mm
16:17 31 °C 10.9 °C 1008 hPa SSW 6.4 km/h 20.9 km/h 29 % 0 mm
16:22 30.9 °C 10.8 °C 1008.4 hPa West 3.2 km/h 20.9 km/h 29 % 0 mm
16:27 30.9 °C 10.3 °C 1008.4 hPa West 6.4 km/h 20.9 km/h 28 % 0 mm
16:32 30.8 °C 9.6 °C 1008.4 hPa WNW 4.8 km/h 16.1 km/h 27 % 0 mm
16:37 30.7 °C 9.6 °C 1008.4 hPa NNW 4.8 km/h 16.1 km/h 27 % 0 mm
16:42 30.7 °C 10.1 °C 1008.7 hPa WSW 1.6 km/h 16.1 km/h 28 % 0 mm
16:47 30.7 °C 10.1 °C 1008.7 hPa NW 6.4 km/h 14.5 km/h 28 % 0 mm
16:52 30.5 °C 9.9 °C 1009 hPa North 3.2 km/h 16.1 km/h 28 % 0 mm
16:57 30.3 °C 9.8 °C 1009 hPa NNW 6.4 km/h 16.1 km/h 28 % 0 mm
17:02 30.2 °C 10.2 °C 1009 hPa NW 1.6 km/h 17.7 km/h 29 % 0 mm
17:07 30.1 °C 10.1 °C 1009 hPa West 9.7 km/h 17.7 km/h 29 % 0 mm
17:12 29.9 °C 10.4 °C 1009.4 hPa WNW 1.6 km/h 17.7 km/h 30 % 0 mm
17:17 29.8 °C 9.9 °C 1009.4 hPa North 1.6 km/h 14.5 km/h 29 % 0 mm
17:22 29.6 °C 9.7 °C 1009.4 hPa West 3.2 km/h 14.5 km/h 29 % 0 mm
17:27 29.4 °C 9.5 °C 1009.7 hPa WNW 3.2 km/h 14.5 km/h 29 % 0 mm
17:32 29.2 °C 9.8 °C 1009.7 hPa NW 1.6 km/h 14.5 km/h 30 % 0 mm
17:37 29.1 °C 9.8 °C 1010 hPa NW 1.6 km/h 11.3 km/h 30 % 0 mm
17:42 28.8 °C 10 °C 1010 hPa WNW 4.8 km/h 9.7 km/h 31 % 0 mm
17:47 28.6 °C 10.3 °C 1010 hPa NW 6.4 km/h 14.5 km/h 32 % 0 mm
17:52 28.4 °C 10.1 °C 1010 hPa North 6.4 km/h 16.1 km/h 32 % 0 mm
17:57 28.2 °C 9.9 °C 1010.4 hPa NNW 8 km/h 16.1 km/h 32 % 0 mm
18:02 27.9 °C 9.7 °C 1010.4 hPa NW 4.8 km/h 16.1 km/h 32 % 0 mm
18:07 27.7 °C 9.5 °C 1010.7 hPa NNW 6.4 km/h 16.1 km/h 32 % 0 mm
18:13 27.6 °C 9.9 °C 1010.7 hPa NNW 9.7 km/h 17.7 km/h 33 % 0 mm
18:18 27.3 °C 9.6 °C 1011.1 hPa WNW 6.4 km/h 17.7 km/h 33 % 0 mm
18:23 27.2 °C 9.5 °C 1011.1 hPa NW 6.4 km/h 17.7 km/h 33 % 0 mm
18:28 27.1 °C 9.9 °C 1011.1 hPa NW 9.7 km/h 17.7 km/h 34 % 0 mm
18:33 26.8 °C 9.6 °C 1011.1 hPa WNW 8 km/h 17.7 km/h 34 % 0 mm
18:38 26.7 °C 9.5 °C 1011.4 hPa NW 12.9 km/h 17.7 km/h 34 % 0 mm
18:43 26.6 °C 9.9 °C 1011.4 hPa NW 4.8 km/h 17.7 km/h 35 % 0 mm
18:48 26.4 °C 9.7 °C 1011.7 hPa NW 6.4 km/h 19.3 km/h 35 % 0 mm
18:53 26.2 °C 9.5 °C 1011.7 hPa NW 8 km/h 19.3 km/h 35 % 0 mm
18:58 25.9 °C 9.7 °C 1011.7 hPa NW 8 km/h 19.3 km/h 36 % 0 mm
19:03 25.9 °C 9.7 °C 1012.1 hPa NW 8 km/h 17.7 km/h 36 % 0 mm
19:08 25.7 °C 9.9 °C 1012.4 hPa WNW 6.4 km/h 17.7 km/h 37 % 0 mm
19:13 25.5 °C 9.7 °C 1012.4 hPa WNW 8 km/h 17.7 km/h 37 % 0 mm
19:18 25.3 °C 10 °C 1012.8 hPa NW 9.7 km/h 17.7 km/h 38 % 0 mm
19:23 25.2 °C 9.9 °C 1012.8 hPa NW 19.3 km/h 19.3 km/h 38 % 0 mm
19:28 25 °C 9.7 °C 1012.8 hPa NW 9.7 km/h 19.3 km/h 38 % 0 mm
19:33 24.9 °C 9.6 °C 1012.8 hPa NW 16.1 km/h 20.9 km/h 38 % 0 mm
19:38 24.6 °C 9.7 °C 1012.8 hPa NNW 11.3 km/h 20.9 km/h 39 % 0 mm
19:43 24.4 °C 9.5 °C 1013.1 hPa NNW 14.5 km/h 22.5 km/h 39 % 0 mm
19:48 24.2 °C 9.7 °C 1013.1 hPa North 9.7 km/h 24.1 km/h 40 % 0 mm
19:53 23.8 °C 9.4 °C 1013.4 hPa NW 20.9 km/h 24.1 km/h 40 % 0 mm
19:58 23.3 °C 9.3 °C 1013.8 hPa WNW 9.7 km/h 29 km/h 41 % 0 mm
20:03 22.9 °C 8.9 °C 1013.8 hPa North 19.3 km/h 30.6 km/h 41 % 0 mm
20:08 22.5 °C 8.9 °C 1014.1 hPa NW 8 km/h 30.6 km/h 42 % 0 mm
20:13 22.2 °C 9 °C 1014.4 hPa WNW 9.7 km/h 30.6 km/h 43 % 0 mm
20:18 21.9 °C 9.1 °C 1014.4 hPa NNW 9.7 km/h 22.5 km/h 44 % 0 mm
20:23 21.6 °C 8.8 °C 1014.8 hPa NW 8 km/h 22.5 km/h 44 % 0 mm
20:28 21.4 °C 9 °C 1014.8 hPa NNW 11.3 km/h 22.5 km/h 45 % 0 mm
20:33 21.2 °C 8.8 °C 1015.1 hPa NW 12.9 km/h 27.4 km/h 45 % 0 mm
20:38 21 °C 8.9 °C 1015.1 hPa NNW 11.3 km/h 29 km/h 46 % 0 mm
20:43 20.8 °C 8.8 °C 1015.5 hPa NNW 8 km/h 29 km/h 46 % 0 mm
20:48 20.6 °C 8.9 °C 1015.5 hPa NNW 8 km/h 29 km/h 47 % 0 mm
20:53 20.3 °C 8.6 °C 1015.5 hPa North 11.3 km/h 20.9 km/h 47 % 0 mm
20:58 20.2 °C 8.2 °C 1015.5 hPa NW 9.7 km/h 20.9 km/h 46 % 0 mm
21:04 20.1 °C 8.1 °C 1015.5 hPa North 8 km/h 20.9 km/h 46 % 0 mm
21:08 19.9 °C 7.9 °C 1015.8 hPa North 9.7 km/h 25.7 km/h 46 % 0 mm
21:14 19.7 °C 8.1 °C 1015.8 hPa NW 4.8 km/h 25.7 km/h 47 % 0 mm
21:19 19.6 °C 8 °C 1015.8 hPa WNW 8 km/h 25.7 km/h 47 % 0 mm
21:24 19.5 °C 7.6 °C 1015.8 hPa NW 12.9 km/h 19.3 km/h 46 % 0 mm
21:29 19.3 °C 7.7 °C 1016.1 hPa NW 6.4 km/h 19.3 km/h 47 % 0 mm
21:34 19.2 °C 7.6 °C 1016.1 hPa NW 8 km/h 24.1 km/h 47 % 0 mm
21:39 19.1 °C 7.8 °C 1016.1 hPa NW 3.2 km/h 24.1 km/h 48 % 0 mm
21:44 18.9 °C 7.6 °C 1016.5 hPa NW 11.3 km/h 24.1 km/h 48 % 0 mm
21:49 18.8 °C 7.6 °C 1016.5 hPa NW 9.7 km/h 20.9 km/h 48 % 0 mm
21:54 18.7 °C 7.5 °C 1016.8 hPa NW 8 km/h 20.9 km/h 48 % 0 mm
21:59 18.5 °C 7.3 °C 1016.8 hPa NW 14.5 km/h 20.9 km/h 48 % 0 mm
22:04 18.3 °C 7.1 °C 1017.2 hPa NE 9.7 km/h 22.5 km/h 48 % 0 mm
22:09 18.2 °C 7 °C 1017.2 hPa NNW 12.9 km/h 22.5 km/h 48 % 0 mm
22:14 18 °C 6.8 °C 1017.2 hPa WNW 9.7 km/h 22.5 km/h 48 % 0 mm
22:19 17.9 °C 6.7 °C 1017.2 hPa NNW 8 km/h 22.5 km/h 48 % 0 mm
22:24 17.8 °C 6.6 °C 1017.5 hPa NNW 4.8 km/h 22.5 km/h 48 % 0 mm
22:29 17.6 °C 6.5 °C 1017.5 hPa NNW 6.4 km/h 22.5 km/h 48 % 0 mm
22:34 17.4 °C 6.6 °C 1017.5 hPa North 12.9 km/h 20.9 km/h 49 % 0 mm
22:39 17.3 °C 6.5 °C 1017.8 hPa NNW 9.7 km/h 20.9 km/h 49 % 0 mm
22:44 17.2 °C 6.4 °C 1017.8 hPa NNW 11.3 km/h 17.7 km/h 49 % 0 mm
22:49 17.1 °C 6.3 °C 1017.8 hPa NNE 12.9 km/h 20.9 km/h 49 % 0 mm
22:54 17 °C 6.2 °C 1017.8 hPa WNW 4.8 km/h 20.9 km/h 49 % 0 mm
22:59 16.9 °C 6.4 °C 1017.8 hPa NW 6.4 km/h 20.9 km/h 50 % 0 mm
23:04 16.7 °C 6.2 °C 1018.2 hPa NNW 4.8 km/h 17.7 km/h 50 % 0 mm
23:09 16.7 °C 6.2 °C 1018.2 hPa NW 4.8 km/h 14.5 km/h 50 % 0 mm
23:14 16.6 °C 6.1 °C 1018.2 hPa NNW 9.7 km/h 14.5 km/h 50 % 0 mm
23:19 16.5 °C 6 °C 1018.2 hPa North 11.3 km/h 16.1 km/h 50 % 0 mm
23:24 16.4 °C 5.9 °C 1018.2 hPa North 9.7 km/h 19.3 km/h 50 % 0 mm
23:29 16.4 °C 5.9 °C 1018.2 hPa WNW 3.2 km/h 20.9 km/h 50 % 0 mm
23:34 16.3 °C 5.9 °C 1018.2 hPa NNW 1.6 km/h 20.9 km/h 50 % 0 mm
23:40 16.2 °C 5.8 °C 1018.2 hPa NNW 6.4 km/h 20.9 km/h 50 % 0 mm
23:44 16.1 °C 6 °C 1018.2 hPa NW 1.6 km/h 17.7 km/h 51 % 0 mm
23:50 16 °C 5.9 °C 1018.2 hPa NW 4.8 km/h 17.7 km/h 51 % 0 mm
23:55 15.8 °C 5.7 °C 1018.2 hPa NNW 8 km/h 17.7 km/h 51 % 0 mm
Spring, Texas: Villages of Bridgestone
Compliments of Weather Underground - 2.75 mb

Script developed by  Jim McMurry - jmcmurry@mwt.net Adapted for the template by  Wim van der Kuil - Leuven-Template.eu

You find our weather info also at:

UK Metoffice

WeatherCloud

Weather Underground

Mid-South Weather Network

AWEKAS

Citizen Weather Observer Program (CWOP)

HAMweather, WeatherForYou, PWS Weather

Equipment we use:

Weather-station
Davis Vantage Vue

Weather-program
Meteohub

Weather-server
Debian 7.9 x86 (Guest)

Provider
DreamHost

Davis Vantage Vue

Meteohub

Debian 7.9 x86 (Guest)

DreamHost